{"data":{"norad_id":56911,"intl_designator":"2023-083AM","name":"STARLINK-6116","alt_names":[],"object_type":"PAYLOAD","status":"ACTIVE","operator":null,"country":"US","launch_date":"2023-06-12","launch_site_code":"AFETR","launch_vehicle":null,"mission":null,"orbit_class":"UNKNOWN","rcs_meters":null,"size_class":null,"mass_kg":null,"dimensions":null,"purposes":["comms"],"wikipedia_slug":null,"has_3d_model":false,"image_url":null,"decayed_at":null,"tle_current":{"epoch":"2026-05-25T00:24:26.918208Z","epoch_age_seconds":66950,"freshness":"FRESH","line1":"1 56911U 23083AM  26145.01697822  .00000048  00000+0  11267-4 0  9993","line2":"2 56911  43.0017 359.4355 0001111 245.6462 114.4274 15.27576428163477","mean_motion":15.27576428,"eccentricity":0.0001111,"inclination_deg":43.0017,"raan_deg":359.4355,"arg_perigee_deg":245.6462,"mean_anomaly_deg":114.4274,"bstar":1.1267e-5,"rev_number":16347,"period_min":94.266969141789,"perigee_km":482.29751294993,"apogee_km":483.8220708771,"semimajor_km":6861.1967919135,"source":"CELESTRAK","updated_at":"2026-05-25T13:38:18.203748Z"}}}